星链-36723(STARLINK-36723)

导读

STARLINK-36723是美国太空探索技术公司星链卫星互联网项目的组网卫星,于2026年2月20日发射入轨,属于低轨卫星星座的组成部分。星链系统旨在为全球提供高速宽带互联网服务,该卫星的发射进一步扩充了星链星座的规模,提升星座的覆盖能力与服务容量,推进全球卫星互联网组网进程。

基本信息
目录编号:
67858
目录名称:
STARLINK-36837
国际标识:
2026-034J
轨道中心:
EARTH
卫星名称:
星链-36723
卫星全名:
星链-36723(STARLINK-36723)
卫星状态:
在轨 (已飞行197 天)
发射日期:
2026-02-20 UTC
国别 :
美国 (US)
星等 :
--
轨道信息
数据来源 国际轨道数据
星历时间: 2026-09-05T04:13:26+0800
17小时前
查看轨道信息
半长轴: 6840.829km
偏心率: 0.000103
轨道倾角: 53.159°
近地点辐角 88.568°
升交点赤经 87.230°
平近点角 271.544°
近地点: 461.987km
远地点: 463.397km
周期: 93.848分钟
每日圈数: 15.344041
详细信息
固有亮度:
5
最大亮度:
2.5
卫星平台:
Starlink V1.0
覆盖范围:
全球
运营商:
太空探索技术公司
运营商所在国:
美国
制造商(研发单位):
太空探索技术公司
制造商所在国:
美国
使用方式:
暂无
卫星简介
Starlink 计划是 SpaceX 推出的全球卫星互联网项目,通过发射低轨道卫星,为全球尤其是偏远地区提供高速、低延迟的互联网服务。自 2019 年起,Starlink 已部署数千颗卫星,旨在缩小全球数字鸿沟,推动互联网普及。该项目还为军事、航空等行业提供通信支持,带来广泛经济效益。
2D轨道图
3D轨道图
轨道高度分析图
轨道倾角分析图
轨道综合分析图
查看轨道综合分析图
交会数据列表
事件ID 空间交会对象 最接近时刻(TCA) 交会距离 交会风险概率(CRP) 交会风险指数(CRI) 操作
CDM_260907-211405-922206-785821
2026-09-07T
21:14:33+0000
1.470 km
极远距离
3.287799E-6 低风险 0.45
CDM_260830-191306-552406-785821
2026-08-30T
19:13:10+0000
1.934 km
极远距离
3.096685E-6 低风险 0.45